STARLINK-1282 (45409 NORAD) Tracking and Keplerian Element Data

This shows tracking and keplerian element data for the satellite.

Feedback or suggestion? Click here.




ElementValue
Catalog45409
NameSTARLINK-1282
Epoch Orbit1781
Epoch Day190.25001157
Epoch Year2020
RAAN71.2642
Inclination52.9963
Eccentricity0.0001472
Argument of Perigee63.4443
Mean Anonmoly167.0697
Mean Motion15.10555264
Decay Rate-0.01083873
L11 45409U 20019BB 20190.25001157 -.01083873 00000-0 -70224-1 0 9995
L22 45409 52.9963 71.2642 0001472 63.4443 167.0697 15.10555264 17815

Live tracking and technical data element details for STARLINK-1282 (NORAD 45409). STARLINK-1282 can be tracked NOW for your location showing map with azimuth and elevation plus other details from your city location.

Track the satellite on the map from your city or location and see movement details for azimuth, elevation, latitude, longitude, range, height, and movement on the map or in text.







IsCatalogInMostPopularTable: catalog: 45409, numindb: 43
Update: records affected: 1



GetName: 45409 STARLINK-1282

Hit Count: updated at: Thu, 09 Jul 2020 02:07:45 GMT